FW0274 Weather Reports


time (UTC)temp
C
wind
direction
speed
KPH
gust
KPH
rain 1hr
cm
rain 24hr
cm
rain mn
cm
humidity
%
barometer
mb
20260903090030 23 175 0.0 0.0 0.00 0.00 0.00 1 1014.9
20260903084526 23 175 0.0 0.0 0.00 0.00 0.00 1 1014.6
20260903083024 23 175 0.0 0.0 0.00 0.00 0.00 1 1014.8
20260903081517 23 175 0.0 0.0 0.00 0.00 0.00 1 1014.7
20260903080013 23 175 0.0 0.0 0.00 0.00 0.00 1 1014.8
20260903074508 23 175 0.0 0.0 0.00 0.00 0.00 1 1014.6
20260903073005 23 176 0.0 0.0 0.00 0.00 0.00 1 1014.7
20260903071601 23 176 0.0 0.0 0.00 0.00 0.00 1 1014.8
20260903070054 23 176 0.0 0.0 0.00 0.00 0.00 1 1014.8
20260903064550 23 176 0.0 0.0 0.00 0.00 0.00 1 1014.9
20260903063045 24 176 0.0 0.0 0.00 0.00 0.00 1 1014.9
20260903061551 24 180 0.0 0.0 0.00 0.00 0.00 1 1015.0
20260903060040 24 180 0.0 0.0 0.00 0.00 0.00 1 1015.0
20260903054533 24 180 0.0 0.0 0.00 0.00 0.00 1 1015.0
20260903053028 24 180 0.0 0.0 0.00 0.00 0.00 1 1014.8
20260903051523 25 180 0.0 0.0 0.00 0.00 0.00 1 1014.8
20260903050019 25 180 0.0 0.0 0.00 0.00 0.00 1 1014.5
20260903044515 25 180 0.0 0.0 0.00 0.00 0.00 1 1014.4
20260903043011 25 181 0.0 1.6 0.00 0.00 0.00 1 1014.2
20260903041506 25 227 0.0 0.0 0.00 0.00 0.00 1 1014.2
20260903040002 25 228 0.0 0.0 0.00 0.00 0.00 1 1014.0
20260903034503 25 228 0.0 0.0 0.00 0.00 0.00 1 1014.2
20260903033001 25 228 0.0 0.0 0.00 0.00 0.00 1 1014.3
20260903031600 25 229 0.0 0.0 0.00 0.00 0.00 1 1014.3
20260903030056 25 229 0.0 0.0 0.00 0.00 0.00 1 1014.7
20260903024553 25 229 0.0 0.0 0.00 0.00 0.00 1 1014.7
20260903023102 25 229 0.0 0.0 0.00 0.00 0.00 1 1014.6
20260903021542 25 229 0.0 0.0 0.00 0.00 0.00 1 1014.8
20260903020050 25 229 0.0 0.0 0.00 0.00 0.00 1 1014.9
20260903014535 26 229 0.0 0.0 0.00 0.00 0.00 1 1014.9
20260903013028 26 229 0.0 0.0 0.00 0.00 0.00 2 1014.7
20260903011524 26 229 0.0 0.0 0.00 0.00 0.00 15 1014.6
20260903010020 27 229 0.0 0.0 0.00 0.00 0.00 27 1014.5
20260903004516 27 229 0.0 0.0 0.00 0.00 0.00 36 1014.1
20260903003010 28 229 0.0 0.0 0.00 0.00 0.00 43 1014.1
20260903001506 28 202 0.0 0.0 0.00 0.00 0.00 47 1014.2
20260903000002 29 203 0.0 3.2 0.00 0.00 0.00 51 1014.0
20260902234606 30 257 0.0 0.0 0.00 0.00 0.00 53 1013.9
20260902233053 30 257 0.0 3.2 0.00 0.00 0.00 54 1013.9
20260902231549 31 252 0.0 3.2 0.00 0.00 0.00 54 1014.0
20260902230049 31 241 0.0 8.0 0.00 0.00 0.00 54 1014.0
20260902224547 31 277 1.6 9.7 0.00 0.00 0.00 54 1013.9
20260902223042 31 232 1.6 11.3 0.00 0.00 0.00 54 1014.1
20260902221538 31 204 0.0 11.3 0.00 0.00 0.00 54 1014.0
20260902220034 32 186 0.0 14.5 0.00 0.00 0.00 54 1014.0
20260902214531 32 257 1.6 11.3 0.00 0.00 0.00 52 1014.2
20260902213029 32 144 3.2 16.1 0.00 0.00 0.00 50 1014.0
20260902211520 32 254 0.0 12.9 0.00 0.00 0.00 53 1014.1
20260902210020 32 206 1.6 11.3 0.00 0.00 0.00 54 1014.1
20260902204512 32 202 1.6 11.3 0.00 0.00 0.00 53 1014.4
20260902203006 32 277 1.6 9.7 0.00 0.00 0.00 53 1014.4
20260902201505 32 244 1.6 12.9 0.00 0.00 0.00 53 1014.7
20260902200058 32 297 0.0 9.7 0.00 0.00 0.00 53 1014.7
20260902194555 32 275 0.0 6.4 0.00 0.00 0.00 54 1014.9
20260902193051 32 277 1.6 8.0 0.00 0.00 0.00 54 1014.9
20260902191544 32 264 0.0 3.2 0.00 0.00 0.00 54 1015.3
20260902190040 32 234 0.0 12.9 0.00 0.00 0.00 54 1015.4
20260902184535 32 250 0.0 11.3 0.00 0.03 0.00 53 1015.4
20260902183031 32 238 1.6 12.9 0.00 0.03 0.00 53 1015.5
20260902181526 32 272 1.6 8.0 0.00 0.03 0.00 53 1015.7
20260902180021 32 271 0.0 6.4 0.00 0.03 0.00 53 1016.0
20260902174517 32 309 1.6 11.3 0.00 0.20 0.00 53 1016.2
20260902173018 32 271 1.6 6.4 0.00 0.20 0.00 53 1016.4
20260902171507 31 271 0.0 8.0 0.00 0.20 0.00 51 1016.6
20260902170003 31 231 0.0 4.8 0.00 0.20 0.00 50 1016.5
20260902164600 31 195 0.0 6.4 0.00 0.20 0.00 48 1016.7
20260902163055 31 206 1.6 11.3 0.00 0.20 0.00 47 1016.7
20260902161551 30 178 3.2 8.0 0.00 0.20 0.00 44 1016.7
20260902154540 30 188 0.0 9.7 0.00 0.23 0.00 30 1017.3
20260902153035 29 220 0.0 8.0 0.00 0.23 0.00 28 1017.2
20260902151531 28 245 0.0 4.8 0.00 0.23 0.00 23 1017.3
20260902150026 28 202 0.0 8.0 0.00 0.23 0.00 25 1017.3
20260902144521 28 248 0.0 4.8 0.00 0.23 0.00 6 1017.2
20260902143017 27 230 0.0 6.4 0.00 0.23 0.00 10 1017.3
20260902141513 27 250 0.0 0.0 0.00 0.23 0.00 1 1017.3
20260902140008 27 235 0.0 6.4 0.00 0.23 0.00 1 1017.1
20260902134504 26 232 0.0 4.8 0.00 0.23 0.00 1 1017.2
20260902133108 26 252 0.0 6.4 0.00 0.23 0.00 1 1017.2
20260902131555 25 197 0.0 0.0 0.00 0.23 0.00 1 1017.2
20260902130050 25 222 0.0 9.7 0.00 0.23 0.00 1 1017.2
20260902124546 24 251 1.6 9.7 0.00 0.23 0.00 1 1017.1
20260902123047 23 175 0.0 0.0 0.00 0.23 0.00 1 1016.8
20260902121537 23 196 0.0 0.0 0.00 0.23 0.00 1 1016.8
20260902120041 22 170 0.0 0.0 0.00 0.23 0.00 1 1016.7
20260902114536 22 164 0.0 0.0 0.00 0.23 0.00 1 1016.8
20260902113024 22 150 0.0 0.0 0.00 0.23 0.00 1 1016.6
20260902111535 22 143 0.0 1.6 0.00 0.23 0.00 1 1016.5
20260902110035 22 174 0.0 0.0 0.00 0.23 0.00 1 1016.4
20260902104510 22 170 0.0 0.0 0.00 0.23 0.00 1 1016.3
20260902103007 22 170 0.0 0.0 0.00 0.23 0.00 1 1016.2
20260902101602 22 179 0.0 0.0 0.00 0.23 0.00 1 1016.3
20260902100057 22 186 0.0 0.0 0.00 0.23 0.00 1 1016.3
20260902094554 22 185 0.0 0.0 0.00 0.23 0.00 1 1016.3
20260902093048 22 185 0.0 0.0 0.00 0.23 0.00 1 1016.5
20260902091544 22 186 0.0 0.0 0.00 0.23 0.00 1 1016.1